This demonstration page uses our WeatherBlox Daily Observations layout. Learn more.

Left ArrowRight Arrow

Hourly Observations for March 23, 2018

Temp ( °F °C ) Dew Point ( °F °C ) Humidity (%) Winds ( mph kmh ) Pressure ( in mb ) Visibility ( mi km ) Precip ( " mm )
12:59 am 00:59 Mostly Cloudy 43 6.1 22 -5.6 43 43 NNW 18 30 30.13 1020 10 16 0.00 0.00
1:59 am 01:59 Partly Cloudy 42 5.6 23 -5 47 47 NW 16 26 30.14 1021 10 16 0.00 0.00
2:59 am 02:59 Partly Cloudy 41 5 21 -6.1 45 45 NW 20 31 30.13 1020 10 16 0.00 0.00
3:59 am 03:59 Mostly Clear 40 4.4 21 -6.1 47 47 NNW 16 26 30.12 1020 10 16 0.00 0.00
4:59 am 04:59 Mostly Clear 39 3.9 20 -6.7 46 46 NW 15 24 30.13 1020 10 16 0.00 0.00
5:59 am 05:59 Partly Cloudy 39 3.9 21 -6.1 48 48 NNW 18 30 30.15 1021 10 16 0.00 0.00
6:59 am 06:59 Partly Cloudy 38 3.3 21 -6.1 51 51 NNW 18 30 30.16 1021 10 16 0.00 0.00
7:59 am 07:59 Mostly Sunny 39 3.9 21 -6.1 48 48 NW 13 20 30.17 1022 10 16 0.00 0.00
8:59 am 08:59 Mostly Sunny 41 5 22 -5.6 47 47 NW 14 22 30.17 1022 10 16 0.00 0.00
9:59 am 09:59 Sunny 43 6.1 20 -6.7 40 40 NNW 13 20 30.17 1022 10 16 0.00 0.00
10:59 am 10:59 Sunny 45 7.2 20 -6.7 37 37 NW 7 11 30.16 1021 10 16 0.00 0.00
11:59 am 11:59 Sunny 46 7.8 21 -6.1 37 37 W 13 20 30.15 1021 10 16 0.00 0.00
12:59 pm 12:59 Sunny 48 8.9 21 -6.1 34 34 W 13 20 30.13 1020 10 16 0.00 0.00
1:29 pm 13:29 Sunny 50 10 19 -7.2 29 29 NNW 14 22 30.12 1020 10 16 0.00 0.00
1:59 pm 13:59 Sunny 51 10.6 21 -6.1 31 31 W 16 26 30.11 1020 10 16 0.00 0.00
2:59 pm 14:59 Mostly Sunny 50 10 22 -5.6 33 33 W 8 13 30.10 1019 10 16 0.00 0.00
3:59 pm 15:59 Mostly Sunny 52 11.1 19 -7.2 27 27 WNW 20 31 30.09 1019 10 16 0.00 0.00
4:59 pm 16:59 Mostly Cloudy 52 11.1 19 -7.2 27 27 NW 15 24 30.09 1019 10 16 0.00 0.00
5:59 pm 17:59 Mostly Cloudy 47 8.3 26 -3.3 44 44 E 6 9 30.09 1019 10 16 0.00 0.00
6:59 pm 18:59 Partly Cloudy 47 8.3 25 -3.9 42 42 E 5 7 30.10 1019 10 16 0.00 0.00
7:59 pm 19:59 Mostly Cloudy 42 5.6 27 -2.8 55 55 Calm 30.12 1020 10 16 0.00 0.00
8:59 pm 20:59 Cloudy 42 5.6 30 -1.1 62 62 Calm 30.14 1021 10 16 0.00 0.00
9:59 pm 21:59 Cloudy 47 8.3 26 -3.3 44 44 N 8 13 30.16 1021 10 16 0.00 0.00
10:59 pm 22:59 Mostly Cloudy 45 7.2 25 -3.9 46 46 N 9 15 30.17 1022 10 16 0.00 0.00
11:59 pm 23:59 Mostly Clear 45 7.2 25 -3.9 46 46 N 10 17 30.18 1022 10 16 0.00 0.00

Powered by AerisWeather